CDT,Max TemperatureF,Mean TemperatureF,Min TemperatureF,Max Dew PointF,MeanDew PointF,Min DewpointF,Max Humidity, Mean Humidity, Min Humidity, Max Sea Level PressureIn, Mean Sea Level PressureIn, Min Sea Level PressureIn, Max VisibilityMiles, Mean VisibilityMiles, Min VisibilityMiles, Max Wind SpeedMPH, Mean Wind SpeedMPH, Max Gust SpeedMPH,PrecipitationIn, CloudCover, Events, WindDirDegrees
2014-4-1,53,42,30,39,24,18,80,61,48,30.05,29.75,29.51,10,10,5,23,13,31,0.00,4,Snow,254
2014-4-2,46,36,26,25,19,16,74,51,31,30.21,30.15,30.06,10,10,10,10,6,,0.00,0,,38
2014-4-3,37,34,32,27,23,18,80,64,48,30.16,30.00,29.72,10,10,1,15,9,22,0.00,8,Snow,62
2014-4-4,35,34,32,34,29,25,93,83,70,29.96,29.65,29.48,10,6,1,20,8,29,0.28,8,Rain-Snow,348
2014-4-5,53,40,28,28,25,21,86,58,28,30.14,30.08,29.96,10,10,10,15,7,18,0.00,0,,265
2014-4-6,64,48,32,37,31,25,75,54,30,30.06,29.97,29.86,10,10,10,20,5,23,0.00,4,,187
2014-4-7,62,50,37,45,37,32,87,68,39,29.90,29.76,29.66,10,9,5,10,3,,0.00,6,Rain,315
2014-4-8,57,46,35,37,32,27,81,60,31,29.95,29.79,29.67,10,10,10,14,6,22,0.00,4,Rain,328
2014-4-9,64,46,28,30,25,19,86,48,19,29.97,29.84,29.60,10,10,10,22,5,29,0.00,1,,202
2014-4-10,64,52,37,37,22,5,61,30,11,29.93,29.70,29.54,10,10,10,22,12,31,0.00,1,,272
2014-4-11,62,48,35,37,29,19,81,49,23,30.02,29.97,29.93,10,10,10,24,3,32,0.00,2,Rain,290
2014-4-12,42,42,41,37,37,36,81,80,76,30.01,30.01,30.01,10,10,10,4,0,,0.00,2,,120
2014-4-13,,,,,,,,,,,,,,,,,,,,,,
2014-4-14,33,28,21,27,22,18,86,73,64,30.03,29.95,29.80,10,10,1,18,11,24,0.00,5,Snow,333
2014-4-15,35,24,14,19,14,9,86,64,41,30.19,30.10,30.03,10,10,10,14,3,18,0.00,2,,276
2014-4-16,44,34,23,30,25,19,86,66,49,30.25,30.17,30.08,10,10,2,24,7,31,0.00,6,Snow,120
2014-4-17,53,45,37,36,32,27,81,64,47,30.30,30.14,30.01,10,10,10,15,11,24,0.00,7,Rain,360
2014-4-18,55,42,30,32,24,14,80,53,21,30.39,30.35,30.29,10,10,10,15,6,21,0.00,2,,360
2014-4-19,62,48,33,37,31,27,81,55,34,30.43,30.30,30.14,10,10,10,16,9,22,0.00,1,,122
2014-4-20,60,56,51,54,46,37,100,72,51,30.14,30.09,29.99,10,8,0,8,5,,0.09,7,Fog-Rain,166
2014-4-21,73,62,50,57,48,28,100,70,20,29.98,29.87,29.76,10,7,0,22,5,31,0.04,5,Fog-Rain,277
2014-4-22,55,47,37,32,26,21,70,46,26,30.13,30.00,29.91,10,10,10,20,12,28,0.00,1,,330
2014-4-23,53,40,28,28,25,10,93,52,25,30.19,30.14,30.07,10,10,10,14,4,,0.00,2,,104
2014-4-24,46,42,39,39,32,7,87,69,23,30.10,29.91,29.68,10,9,4,20,7,29,0.21,8,Rain,92
2014-4-25,64,52,41,43,37,28,93,64,32,29.88,29.75,29.68,10,8,1,24,7,33,0.00,5,Rain,283
2014-4-26,51,42,33,30,29,27,81,58,41,30.14,30.02,29.88,10,10,10,15,7,20,0.00,2,,36
2014-4-27,44,40,35,36,31,27,81,70,57,30.15,30.07,29.97,10,10,7,22,11,30,0.04,7,Rain,78
2014-4-28,50,46,42,37,35,30,81,70,50,29.88,29.80,29.73,10,10,4,22,13,33,0.10,8,Rain,62
2014-4-29,44,42,39,43,40,36,93,89,76,29.74,29.62,29.56,10,7,2,14,10,24,0.27,8,Rain,39
2014-4-30,57,50,44,50,44,37,100,84,58,29.71,29.67,29.63,10,6,1,14,5,17,0.03,8,Rain,151